Tracking 33200 objects as of 17-Feb-2026
HD Live streaming from Space Station
objects crossing your sky now

FORMOSAT 3E

Track FORMOSAT 3E now!
10-day predictions
FORMOSAT 3E is classified as:


NORAD ID: 29051
Int'l Code: 2006-011E
Perigee: 745.6 km
Apogee: 842.6 km
Inclination: 72.0 °
Period: 100.6 minutes
Semi major axis: 7165 km
RCS: 0.58 m2 (medium)
Launch date: April 15, 2006
Source: Taiwan (Republic of China) (ROC)
Launch site: AIR FORCE WESTERN TEST RANGE (AFWTR)
Your satellite tracking list
Your tracking list is empty




NASA's NSSDC Master Catalog

Two Line Element Set (TLE):
1 29051U 06011E   26048.47019642  .00000432  00000-0  17399-3 0  9999
2 29051  72.0035 186.5728 0067632 297.7631  61.6659 14.31430311 38131
Source of the keplerian elements: AFSPC